Vorticity
nan nan nan nan nan nan nan nan nan nan nan nan nan nan nan nan nan nan nan nan nan nan nan nan nan nan nan nan nan nan nan nan nan nan nan nan nan nan nan nan nan nan nan
nan 5 5 6 5 5 5 4 4 5 6 5 4 4 5 5 6 6 5 4 4 5 4 4 4 4 4 4 4 4 4 4 4 4 6 5 7 4 5 4 7 5 nan
nan 6 5 5 7 6 5 5 4 5 5 5 4 4 4 4 5 6 7 6 5 4 6 7 6 4 4 4 5 5 5 5 4 6 7 12 10 7 4 4 4 6 nan
nan 4 7 6 7 6 6 5 5 5 4 5 4 4 3 4 4 4 4 5 7 8 7 6 6 6 5 5 5 5 4 4 5 7 11 15 6 7 5 4 5 4 nan
nan 8 6 7 7 6 5 5 5 4 4 6 6 7 8 6 4 4 5 6 7 10 8 7 6 5 5 5 5 5 4 4 6 9 11 13 5 4 6 6 7 4 nan
nan 8 7 7 8 8 8 7 7 8 7 7 7 7 10 9 7 6 7 8 9 10 11 9 7 6 6 6 5 5 4 5 9 10 14 8 7 6 5 7 7 5 nan
nan 9 5 8 10 9 8 8 9 8 6 7 9 9 7 7 8 7 8 8 7 8 8 8 8 8 7 7 7 6 6 7 8 8 15 5 5 6 5 7 8 6 nan
nan 6 5 4 6 8 7 7 7 6 8 8 8 8 8 7 7 7 6 6 6 7 7 6 6 6 6 6 6 6 6 7 8 14 8 0 4 8 8 8 10 9 nan
nan 6 5 5 3 3 5 8 8 8 8 8 8 7 7 7 7 6 7 6 5 5 5 5 5 5 4 4 4 4 4 7 7 13 7 1 4 6 7 10 12 13 nan
nan 7 6 5 5 4 5 6 7 8 7 7 6 5 4 4 3 5 5 4 5 5 4 4 4 3 3 3 3 3 3 10 14 8 3 4 4 8 8 9 11 15 nan
nan 5 7 6 5 5 6 5 6 5 3 3 4 4 -1 3 4 3 4 6 4 3 4 4 3 4 5 5 7 4 9 9 12 7 4 8 10 8 8 10 10 10 nan
nan 5 6 6 6 5 6 4 3 2 3 3 5 2 1 5 9 8 5 5 4 3 4 4 6 7 9 10 11 11 8 6 9 6 3 8 11 7 7 6 7 8 nan
nan 7 7 6 7 3 6 5 5 5 7 8 9 6 7 5 7 3 5 7 8 8 6 8 8 6 9 11 11 11 9 11 8 2 3 6 9 7 6 6 6 8 nan
nan 8 5 6 6 4 4 7 7 7 6 8 9 8 8 6 7 6 8 7 8 8 8 9 11 9 6 7 7 7 8 12 12 4 3 6 8 7 7 8 8 8 nan
nan 7 6 7 5 7 4 6 6 8 8 9 7 8 5 8 7 8 8 8 10 9 8 8 6 8 8 5 8 10 8 11 9 7 5 4 5 6 8 9 8 9 nan
nan 7 6 7 6 6 5 7 7 8 9 7 8 9 7 8 8 8 7 7 6 8 7 7 8 8 8 6 5 6 9 10 9 11 6 3 3 3 6 8 9 7 nan
nan 13 8 5 5 5 5 7 7 7 8 7 10 9 8 8 9 6 7 8 7 7 9 9 6 7 7 8 8 7 5 6 8 12 11 5 1 1 3 5 8 8 nan
nan 11 6 6 7 6 4 5 6 8 6 8 8 8 9 7 7 7 8 9 7 7 6 7 9 9 7 8 7 8 8 7 7 5 7 10 10 3 0 4 6 7 nan
nan 10 8 7 7 5 5 6 7 8 6 8 7 9 9 7 7 7 7 8 7 8 9 7 7 9 9 7 7 8 9 7 6 8 8 6 6 11 7 2 1 3 nan
nan 12 6 7 8 4 6 7 8 6 7 8 8 11 8 8 8 8 8 7 9 9 7 8 8 7 10 10 8 6 7 8 8 6 6 7 6 7 11 7 1 1 nan
nan 16 9 6 5 3 8 7 8 6 7 8 11 9 7 8 9 7 8 8 9 8 10 8 7 7 5 11 9 6 6 8 8 7 5 7 8 7 6 8 11 8 nan
nan 10 9 8 6 3 6 7 8 7 7 8 10 8 9 9 7 9 9 9 8 8 7 7 9 9 6 9 12 10 5 7 10 7 8 6 7 10 7 8 7 10 nan
nan 11 8 6 6 6 5 6 7 7 6 9 8 7 8 9 8 8 9 10 9 8 8 7 7 11 9 6 10 11 11 12 9 7 7 6 9 7 8 8 7 9 nan
nan 14 12 8 7 6 5 7 6 7 6 7 7 9 9 8 9 7 8 9 8 9 10 7 8 9 12 11 6 8 10 10 10 11 6 8 7 7 7 6 9 8 nan
nan 12 16 9 9 9 5 5 9 7 7 9 10 8 6 8 8 8 8 8 9 8 8 9 9 10 12 10 9 9 8 7 8 12 11 7 7 7 8 8 8 6 nan
nan nan nan nan nan nan nan nan nan nan nan nan nan nan nan nan nan nan nan nan nan nan nan nan nan nan nan nan nan nan nan nan nan nan nan nan nan nan nan nan nan nan nan
CAPE
1090 1188 1788 2117 1908 1803 1763 1685 1703 1819 1970 2092 2121 2165 2159 2047 1964 1878 1801 1850 1775 1544 1431 1363 1224 1104 971 790 616 539 531 572 592 560 642 692 896 1282 1046 1027 872 572 1165
1267 1219 1717 2059 1926 1870 1820 1741 1733 1848 1893 1883 2014 2033 1966 1900 1893 1789 1614 1533 1482 1300 1370 1404 1309 1240 914 663 609 599 549 555 546 709 764 745 971 1359 1195 952 1021 813 1105
1313 1335 1559 1900 1882 1943 1965 1912 1846 1827 1791 1651 1712 1860 1801 1814 1832 1886 1848 1792 1475 1248 1194 1322 1524 1416 1085 911 760 651 579 577 636 815 1043 625 1105 1467 1419 1027 991 1027 1111
1449 1351 1532 1690 1781 1929 1931 1946 1945 1898 1984 1944 1834 1775 1755 1747 1618 1568 1548 1617 1535 1441 1583 1643 1517 1370 1136 922 795 687 628 710 790 901 293 1080 1374 1911 1560 1227 979 1023 919
1606 1363 1672 1570 1643 1857 1917 1966 1987 2062 2004 1928 1752 1839 1985 1953 1592 1406 1335 1257 1211 1158 1204 1278 1245 953 754 674 640 584 548 689 750 496 361 422 1002 1757 1722 1397 1196 967 943
1538 1941 1253 1423 1552 1781 1900 1878 1869 1879 1594 1392 1382 1560 1758 1563 1408 1221 1165 1069 1087 1195 1277 1291 1243 1028 813 743 713 652 654 685 610 171 547 1014 798 1374 1465 1873 1356 942 883
2244 1759 1571 1262 1454 1716 1864 1783 1570 1355 1140 1087 1145 1184 1475 1165 803 459 464 300 284 384 510 560 499 334 297 348 362 340 412 367 256 374 893 647 1029 1312 1271 1229 1720 1074 817
1805 1557 1347 1057 1109 1204 1256 1055 871 840 812 782 845 879 463 287 214 113 28 1 0 0 0 0 0 0 0 0 0 0 0 2 4 116 420 49 692 1574 1222 1369 1523 1501 911
1599 1365 1157 930 654 451 375 352 345 376 421 425 252 139 64 34 20 10 0 0 0 0 0 0 0 0 0 0 0 0 0 0 0 6 0 0 273 772 1326 1539 1624 1674 1387
1077 1040 965 707 443 335 70 53 41 19 14 4 0 0 0 0 0 0 0 0 0 0 0 0 0 0 0 0 0 0 0 0 0 0 0 0 8 281 803 1182 1388 1622 1680
987 856 1052 891 596 361 25 0 0 0 0 0 0 0 0 0 0 0 0 0 0 0 0 0 0 0 0 0 0 0 0 0 0 0 0 0 42 320 907 1029 965 772 937
987 1090 1131 904 651 306 9 0 0 0 0 0 0 0 0 0 0 0 0 0 0 0 0 0 0 0 0 0 0 0 0 0 0 0 0 0 9 15 68 184 191 200 453
1127 1475 1181 832 576 353 13 0 0 0 0 0 0 0 0 0 0 0 0 0 0 0 0 0 0 0 0 0 0 0 0 0 0 0 0 0 6 21 17 8 10 106 139
1199 1428 1072 850 502 394 0 0 0 0 0 0 0 0 0 0 0 0 0 0 0 0 0 0 0 0 0 0 0 0 0 0 0 0 0 0 0 4 7 8 8 12 28
1548 1245 1010 686 459 245 0 0 0 0 0 0 0 0 0 0 0 0 0 0 0 0 0 0 0 0 0 0 0 0 0 0 0 0 0 0 0 0 3 9 11 16 42
1745 1275 685 497 280 26 0 0 0 0 0 0 0 0 0 0 0 0 0 0 0 0 0 0 0 0 0 0 0 0 0 0 0 0 0 0 0 0 0 7 8 19 26
1756 1575 664 312 156 0 0 0 0 0 0 0 0 0 0 0 0 0 0 0 0 0 0 0 0 0 0 0 0 0 0 0 0 0 0 0 0 0 0 0 3 10 11
1611 1314 629 126 68 0 0 0 0 0 0 0 0 0 0 0 0 0 0 0 0 0 0 0 0 0 0 0 0 0 0 0 0 0 0 0 0 0 0 0 0 0 9
1536 1303 504 68 0 0 0 0 0 0 0 0 0 0 0 0 0 0 0 0 0 0 0 0 0 0 0 0 0 0 0 0 0 0 0 0 0 0 0 0 0 0 0
1015 1374 442 47 0 0 0 0 0 0 0 0 0 0 0 0 0 0 0 0 0 0 0 0 0 0 0 0 0 0 0 0 0 0 0 0 0 0 0 0 0 0 0
995 1400 458 20 0 0 0 0 0 0 0 0 0 0 0 0 0 0 0 0 0 0 0 0 0 0 0 0 0 0 0 0 0 0 0 0 0 0 0 0 0 0 0
1219 1465 540 3 0 0 0 0 0 0 0 0 0 0 0 0 0 0 0 0 0 0 0 0 0 0 0 0 0 0 0 0 0 0 0 0 0 0 0 0 0 0 0
922 1518 522 42 0 0 0 0 0 0 0 0 0 0 0 0 0 0 0 0 0 0 0 0 0 0 0 0 0 0 0 0 0 0 0 0 0 0 0 0 0 0 0
1101 1496 492 57 0 0 0 0 0 0 0 0 0 0 0 0 0 0 0 0 0 0 0 0 0 0 0 0 0 0 0 0 0 0 0 0 0 0 0 0 0 0 0
1315 1352 461 65 0 0 0 0 0 0 0 0 0 0 0 0 0 0 0 0 0 0 0 0 0 0 0 0 0 0 0 0 0 0 0 0 0 0 0 0 0 0 0
1002 1042 369 40 0 0 0 0 0 0 0 0 0 0 0 0 0 0 0 0 0 0 0 0 0 0 0 0 0 0 0 0 0 0 0 0 0 0 0 0 0 0 0